| time (UTC) | temp C | wind direction | speed KPH | gust KPH | rain 1hr cm | rain 24hr cm | rain mn cm | humidity % | barometer mb |
| 20260906232532 | 18 | 0 | 0.0 | 8.0 | 0.00 | 0.36 | 0.03 | 75 | 1015.0 |
| 20260906232035 | 17 | 0 | 0.0 | 8.0 | 0.00 | 0.36 | 0.03 | 76 | 1015.0 |
| 20260906231609 | 17 | 338 | 1.6 | 8.0 | 0.00 | 0.36 | 0.03 | 76 | 1015.2 |
| 20260906231034 | 17 | 341 | 0.0 | 8.0 | 0.00 | 0.36 | 0.03 | 78 | 1015.2 |
| 20260906230532 | 17 | 0 | 1.6 | 9.7 | 0.00 | 0.36 | 0.03 | 77 | 1015.3 |
| 20260906230059 | 17 | 0 | 1.6 | 9.7 | 0.00 | 0.36 | 0.03 | 78 | 1015.4 |
| 20260906225532 | 17 | 346 | 1.6 | 8.0 | 0.00 | 0.36 | 0.03 | 77 | 1015.4 |
| 20260906225032 | 17 | 0 | 0.0 | 3.2 | 0.00 | 0.36 | 0.03 | 78 | 1015.4 |
| 20260906224601 | 17 | 0 | 0.0 | 1.6 | 0.00 | 0.36 | 0.03 | 77 | 1015.5 |
| 20260906224032 | 17 | 0 | 0.0 | 0.0 | 0.00 | 0.36 | 0.03 | 78 | 1015.5 |
| 20260906223532 | 17 | 0 | 0.0 | 0.0 | 0.00 | 0.36 | 0.03 | 78 | 1015.5 |
| 20260906223058 | 17 | 0 | 0.0 | 0.0 | 0.00 | 0.36 | 0.03 | 77 | 1015.6 |
| 20260906222532 | 17 | 0 | 0.0 | 1.6 | 0.00 | 0.36 | 0.03 | 78 | 1015.6 |
| 20260906222035 | 17 | 0 | 0.0 | 6.4 | 0.00 | 0.36 | 0.03 | 79 | 1015.6 |
| 20260906221600 | 17 | 0 | 0.0 | 8.0 | 0.00 | 0.36 | 0.03 | 78 | 1015.7 |
| 20260906221031 | 17 | 0 | 0.0 | 8.0 | 0.00 | 0.36 | 0.03 | 78 | 1015.6 |
| 20260906220533 | 17 | 0 | 0.0 | 9.7 | 0.00 | 0.36 | 0.03 | 77 | 1015.5 |
| 20260906220058 | 17 | 0 | 0.0 | 9.7 | 0.00 | 0.36 | 0.03 | 77 | 1015.5 |
| 20260906215532 | 17 | 0 | 0.0 | 6.4 | 0.00 | 0.36 | 0.03 | 77 | 1015.5 |
| 20260906215035 | 17 | 68 | 0.0 | 3.2 | 0.00 | 0.36 | 0.03 | 78 | 1015.5 |
| 20260906214557 | 17 | 0 | 0.0 | 0.0 | 0.00 | 0.36 | 0.03 | 78 | 1015.6 |
| 20260906214032 | 17 | 0 | 0.0 | 3.2 | 0.00 | 0.36 | 0.03 | 78 | 1015.5 |
| 20260906213532 | 17 | 0 | 0.0 | 3.2 | 0.00 | 0.36 | 0.03 | 78 | 1015.6 |
| 20260906213051 | 17 | 0 | 0.0 | 4.8 | 0.00 | 0.36 | 0.03 | 77 | 1015.6 |
| 20260906212531 | 17 | 58 | 0.0 | 6.4 | 0.00 | 0.36 | 0.03 | 77 | 1015.6 |
| 20260906212034 | 17 | 0 | 0.0 | 6.4 | 0.00 | 0.36 | 0.03 | 77 | 1015.5 |
| 20260906211600 | 17 | 0 | 0.0 | 3.2 | 0.00 | 0.36 | 0.03 | 77 | 1015.5 |
| 20260906211032 | 17 | 0 | 0.0 | 6.4 | 0.00 | 0.36 | 0.03 | 77 | 1015.5 |
| 20260906210533 | 17 | 0 | 0.0 | 6.4 | 0.00 | 0.36 | 0.03 | 77 | 1015.4 |
| 20260906205532 | 17 | 21 | 0.0 | 3.2 | 0.00 | 0.36 | 0.03 | 77 | 1015.5 |
| 20260906205031 | 17 | 0 | 0.0 | 11.3 | 0.00 | 0.36 | 0.03 | 77 | 1015.6 |
| 20260906204556 | 17 | 0 | 0.0 | 11.3 | 0.00 | 0.36 | 0.03 | 76 | 1015.6 |
| 20260906204031 | 17 | 0 | 0.0 | 1.6 | 0.00 | 0.36 | 0.03 | 76 | 1015.7 |
| 20260906203532 | 17 | 0 | 0.0 | 4.8 | 0.00 | 0.36 | 0.03 | 76 | 1015.6 |
| 20260906203054 | 17 | 0 | 0.0 | 4.8 | 0.00 | 0.36 | 0.03 | 76 | 1015.5 |
| 20260906202533 | 17 | 0 | 0.0 | 4.8 | 0.00 | 0.36 | 0.03 | 77 | 1015.7 |
| 20260906202034 | 17 | 0 | 0.0 | 9.7 | 0.00 | 0.36 | 0.03 | 77 | 1015.6 |
| 20260906201552 | 17 | 0 | 0.0 | 9.7 | 0.00 | 0.36 | 0.03 | 76 | 1015.9 |
| 20260906201031 | 17 | 0 | 0.0 | 3.2 | 0.00 | 0.36 | 0.03 | 75 | 1016.0 |
| 20260906200532 | 17 | 0 | 0.0 | 3.2 | 0.00 | 0.36 | 0.03 | 77 | 1015.9 |
| 20260906195533 | 17 | 0 | 0.0 | 6.4 | 0.00 | 0.36 | 0.03 | 76 | 1016.0 |
| 20260906195034 | 17 | 80 | 0.0 | 6.4 | 0.00 | 0.36 | 0.03 | 75 | 1016.0 |
| 20260906194555 | 17 | 0 | 0.0 | 3.2 | 0.00 | 0.36 | 0.03 | 75 | 1016.0 |
| 20260906194036 | 17 | 0 | 0.0 | 9.7 | 0.00 | 0.36 | 0.03 | 75 | 1016.0 |
| 20260906193535 | 17 | 0 | 0.0 | 9.7 | 0.00 | 0.36 | 0.03 | 75 | 1016.0 |
| 20260906193058 | 17 | 34 | 0.0 | 6.4 | 0.00 | 0.36 | 0.03 | 75 | 1016.0 |
| 20260906192534 | 17 | 0 | 0.0 | 9.7 | 0.00 | 0.36 | 0.03 | 75 | 1016.0 |
| 20260906192034 | 17 | 0 | 0.0 | 12.9 | 0.00 | 0.36 | 0.03 | 75 | 1016.0 |
| 20260906191556 | 17 | 0 | 1.6 | 12.9 | 0.00 | 0.36 | 0.03 | 75 | 1016.0 |
| 20260906191038 | 17 | 0 | 0.0 | 12.9 | 0.00 | 0.36 | 0.03 | 74 | 1016.1 |
| 20260906190535 | 17 | 47 | 1.6 | 12.9 | 0.00 | 0.36 | 0.03 | 74 | 1016.1 |
| 20260906185534 | 17 | 0 | 1.6 | 12.9 | 0.00 | 0.36 | 0.03 | 74 | 1016.0 |
| 20260906185034 | 17 | 12 | 0.0 | 14.5 | 0.00 | 0.36 | 0.03 | 73 | 1016.0 |
| 20260906184604 | 17 | 0 | 1.6 | 16.1 | 0.00 | 0.36 | 0.03 | 72 | 1016.0 |
| 20260906184033 | 17 | 77 | 3.2 | 16.1 | 0.00 | 0.36 | 0.03 | 73 | 1016.2 |
| 20260906183534 | 17 | 0 | 0.0 | 12.9 | 0.00 | 0.36 | 0.03 | 74 | 1016.3 |
| 20260906183104 | 17 | 38 | 1.6 | 14.5 | 0.03 | 0.36 | 0.03 | 74 | 1016.2 |
| 20260906182536 | 17 | 0 | 3.2 | 14.5 | 0.03 | 0.36 | 0.03 | 75 | 1016.3 |
| 20260906182035 | 17 | 0 | 3.2 | 16.1 | 0.03 | 0.36 | 0.03 | 76 | 1016.3 |
| 20260906181600 | 17 | 55 | 1.6 | 16.1 | 0.03 | 0.36 | 0.03 | 79 | 1016.1 |
| 20260906181035 | 16 | 25 | 1.6 | 12.9 | 0.03 | 0.36 | 0.03 | 81 | 1016.1 |
| 20260906180534 | 16 | 0 | 0.0 | 12.9 | 0.03 | 0.36 | 0.03 | 81 | 1016.4 |
| 20260906180100 | 16 | 0 | 0.0 | 8.0 | 0.03 | 0.36 | 0.03 | 81 | 1016.4 |
| 20260906175536 | 15 | 0 | 0.0 | 8.0 | 0.03 | 0.36 | 0.03 | 86 | 1016.2 |
| 20260906175035 | 15 | 0 | 0.0 | 0.0 | 0.03 | 0.36 | 0.03 | 88 | 1016.2 |
| 20260906174555 | 14 | 0 | 0.0 | 0.0 | 0.03 | 0.36 | 0.03 | 91 | 1016.7 |
| 20260906174035 | 13 | 0 | 0.0 | 0.0 | 0.03 | 0.36 | 0.03 | 92 | 1017.5 |
| 20260906173533 | 13 | 0 | 0.0 | 0.0 | 0.03 | 0.36 | 0.03 | 92 | 1017.7 |
| 20260906173105 | 13 | 0 | 0.0 | 0.0 | 0.00 | 0.33 | 0.00 | 92 | 1017.9 |
| 20260906172534 | 13 | 0 | 0.0 | 0.0 | 0.00 | 0.33 | 0.00 | 92 | 1018.2 |
| 20260906172035 | 13 | 0 | 0.0 | 0.0 | 0.00 | 0.33 | 0.00 | 92 | 1018.3 |
| 20260906171600 | 13 | 0 | 0.0 | 0.0 | 0.00 | 0.33 | 0.00 | 92 | 1018.4 |
| 20260906171034 | 13 | 0 | 0.0 | 0.0 | 0.00 | 0.33 | 0.00 | 92 | 1018.3 |
| 20260906170534 | 13 | 0 | 0.0 | 0.0 | 0.00 | 0.33 | 0.00 | 92 | 1018.2 |
| 20260906170059 | 13 | 0 | 0.0 | 0.0 | 0.00 | 0.33 | 0.00 | 92 | 1018.2 |
| 20260906165617 | 13 | 0 | 0.0 | 0.0 | 0.00 | 0.33 | 0.00 | 92 | 1018.2 |
| 20260906165033 | 13 | 0 | 0.0 | 0.0 | 0.00 | 0.33 | 0.00 | 92 | 1018.2 |
| 20260906164604 | 13 | 0 | 0.0 | 0.0 | 0.00 | 0.33 | 0.00 | 92 | 1018.2 |
| 20260906164036 | 13 | 0 | 0.0 | 0.0 | 0.00 | 0.33 | 0.00 | 92 | 1018.3 |
| 20260906163536 | 13 | 0 | 0.0 | 0.0 | 0.00 | 0.33 | 0.00 | 92 | 1018.3 |
| 20260906163055 | 13 | 0 | 0.0 | 0.0 | 0.00 | 0.33 | 0.00 | 92 | 1018.2 |
| 20260906162536 | 13 | 0 | 0.0 | 0.0 | 0.00 | 0.33 | 0.00 | 92 | 1018.1 |
| 20260906162035 | 13 | 0 | 0.0 | 0.0 | 0.00 | 0.33 | 0.00 | 92 | 1018.1 |
| 20260906161557 | 13 | 0 | 0.0 | 0.0 | 0.00 | 0.33 | 0.00 | 92 | 1018.0 |
| 20260906161035 | 13 | 0 | 0.0 | 0.0 | 0.00 | 0.33 | 0.00 | 91 | 1017.9 |
| 20260906160536 | 12 | 0 | 0.0 | 1.6 | 0.00 | 0.33 | 0.00 | 91 | 1018.0 |
| 20260906160053 | 12 | 0 | 0.0 | 1.6 | 0.00 | 0.33 | 0.00 | 91 | 1018.2 |
| 20260906155536 | 12 | 74 | 0.0 | 0.0 | 0.00 | 0.33 | 0.00 | 90 | 1018.1 |
| 20260906155036 | 12 | 0 | 0.0 | 0.0 | 0.00 | 0.33 | 0.00 | 90 | 1018.3 |
| 20260906154600 | 12 | 0 | 0.0 | 4.8 | 0.00 | 0.33 | 0.00 | 89 | 1018.4 |
| 20260906154036 | 12 | 0 | 0.0 | 4.8 | 0.00 | 0.33 | 0.00 | 89 | 1018.4 |
| 20260906153536 | 12 | 0 | 0.0 | 8.0 | 0.00 | 0.33 | 0.00 | 88 | 1018.6 |
| 20260906153100 | 12 | 0 | 0.0 | 12.9 | 0.00 | 0.33 | 0.00 | 88 | 1018.7 |
| 20260906152535 | 12 | 0 | 1.6 | 14.5 | 0.00 | 0.33 | 0.00 | 87 | 1018.8 |
| 20260906152036 | 12 | 44 | 1.6 | 14.5 | 0.00 | 0.33 | 0.00 | 86 | 1018.7 |
| 20260906151601 | 13 | 0 | 1.6 | 14.5 | 0.00 | 0.33 | 0.00 | 86 | 1018.7 |
| 20260906151036 | 13 | 0 | 1.6 | 14.5 | 0.00 | 0.33 | 0.00 | 86 | 1018.7 |
| 20260906150537 | 13 | 0 | 1.6 | 14.5 | 0.00 | 0.33 | 0.00 | 85 | 1018.9 |
| 20260906150101 | 13 | 343 | 1.6 | 14.5 | 0.00 | 0.33 | 0.00 | 85 | 1018.9 |
| 20260906145536 | 13 | 351 | 0.0 | 17.7 | 0.00 | 0.36 | 0.00 | 84 | 1018.6 |
| 20260906145039 | 13 | 357 | 3.2 | 22.5 | 0.00 | 0.36 | 0.00 | 84 | 1018.8 |
| 20260906144609 | 14 | 355 | 8.0 | 22.5 | 0.00 | 0.36 | 0.00 | 84 | 1019.1 |
| 20260906144036 | 14 | 0 | 0.0 | 8.0 | 0.00 | 0.36 | 0.00 | 88 | 1019.1 |
| 20260906143536 | 14 | 0 | 0.0 | 0.0 | 0.00 | 0.36 | 0.00 | 88 | 1018.9 |
| 20260906143108 | 14 | 0 | 0.0 | 0.0 | 0.00 | 0.36 | 0.00 | 88 | 1018.7 |
| 20260906142535 | 14 | 0 | 0.0 | 3.2 | 0.00 | 0.36 | 0.00 | 88 | 1018.6 |
| 20260906142037 | 14 | 0 | 0.0 | 3.2 | 0.00 | 0.36 | 0.00 | 88 | 1018.3 |
| 20260906141558 | 14 | 0 | 0.0 | 0.0 | 0.00 | 0.36 | 0.00 | 88 | 1018.3 |
| 20260906141035 | 14 | 0 | 0.0 | 1.6 | 0.00 | 0.36 | 0.00 | 88 | 1018.4 |
| 20260906140535 | 14 | 0 | 0.0 | 1.6 | 0.00 | 0.36 | 0.00 | 88 | 1018.5 |
| 20260906140107 | 14 | 0 | 0.0 | 1.6 | 0.00 | 0.36 | 0.00 | 89 | 1018.5 |
| 20260906135535 | 14 | 0 | 0.0 | 0.0 | 0.00 | 0.46 | 0.00 | 89 | 1018.6 |
| 20260906135035 | 14 | 0 | 0.0 | 0.0 | 0.00 | 0.46 | 0.00 | 89 | 1018.7 |
| 20260906134557 | 13 | 0 | 0.0 | 0.0 | 0.00 | 0.46 | 0.00 | 90 | 1018.5 |
| 20260906134037 | 13 | 0 | 0.0 | 4.8 | 0.00 | 0.46 | 0.00 | 90 | 1018.3 |
| 20260906133535 | 13 | 0 | 0.0 | 6.4 | 0.00 | 0.46 | 0.00 | 90 | 1018.2 |
| 20260906133108 | 13 | 0 | 0.0 | 6.4 | 0.00 | 0.46 | 0.00 | 90 | 1018.2 |
| 20260906132536 | 13 | 55 | 0.0 | 0.0 | 0.00 | 0.46 | 0.00 | 90 | 1018.1 |
| 20260906132039 | 13 | 0 | 0.0 | 0.0 | 0.00 | 0.46 | 0.00 | 90 | 1018.2 |
| 20260906131559 | 13 | 0 | 0.0 | 1.6 | 0.00 | 0.46 | 0.00 | 91 | 1018.2 |
| 20260906131032 | 13 | 0 | 0.0 | 1.6 | 0.00 | 0.46 | 0.00 | 91 | 1018.2 |
| 20260906130535 | 13 | 0 | 0.0 | 0.0 | 0.00 | 0.46 | 0.00 | 91 | 1018.3 |
| 20260906130056 | 13 | 0 | 0.0 | 0.0 | 0.00 | 0.46 | 0.00 | 91 | 1018.3 |
| 20260906125535 | 13 | 0 | 0.0 | 1.6 | 0.00 | 0.46 | 0.00 | 91 | 1018.3 |
| 20260906125035 | 13 | 0 | 0.0 | 1.6 | 0.00 | 0.46 | 0.00 | 90 | 1018.5 |
| 20260906124600 | 13 | 0 | 0.0 | 0.0 | 0.00 | 0.46 | 0.00 | 90 | 1018.4 |
| 20260906124035 | 13 | 0 | 0.0 | 4.8 | 0.00 | 0.46 | 0.00 | 90 | 1018.5 |
| 20260906123536 | 13 | 0 | 0.0 | 4.8 | 0.00 | 0.46 | 0.00 | 90 | 1018.5 |
| 20260906123101 | 13 | 68 | 0.0 | 3.2 | 0.00 | 0.46 | 0.00 | 90 | 1018.5 |
| 20260906122536 | 13 | 0 | 0.0 | 6.4 | 0.00 | 0.46 | 0.00 | 90 | 1018.4 |
| 20260906122036 | 13 | 0 | 0.0 | 9.7 | 0.00 | 0.46 | 0.00 | 90 | 1018.3 |
| 20260906121559 | 13 | 38 | 0.0 | 9.7 | 0.00 | 0.46 | 0.00 | 89 | 1018.3 |
| 20260906121035 | 13 | 0 | 0.0 | 12.9 | 0.00 | 0.46 | 0.00 | 89 | 1018.4 |
| 20260906120535 | 13 | 68 | 0.0 | 12.9 | 0.00 | 0.46 | 0.00 | 89 | 1018.4 |
| 20260906120104 | 13 | 0 | 0.0 | 8.0 | 0.00 | 0.46 | 0.00 | 89 | 1018.5 |
| 20260906115535 | 13 | 0 | 0.0 | 12.9 | 0.00 | 0.46 | 0.00 | 89 | 1018.5 |
| 20260906115034 | 13 | 0 | 0.0 | 12.9 | 0.00 | 0.46 | 0.00 | 89 | 1018.6 |
| 20260906114557 | 13 | 0 | 0.0 | 3.2 | 0.00 | 0.46 | 0.00 | 89 | 1018.7 |
| 20260906114036 | 13 | 0 | 0.0 | 4.8 | 0.00 | 0.46 | 0.00 | 89 | 1018.7 |
| 20260906113535 | 13 | 0 | 0.0 | 9.7 | 0.00 | 0.46 | 0.00 | 88 | 1018.6 |
| 20260906113055 | 13 | 0 | 0.0 | 12.9 | 0.00 | 0.46 | 0.00 | 88 | 1018.5 |
| 20260906112535 | 13 | 0 | 0.0 | 16.1 | 0.00 | 0.46 | 0.00 | 88 | 1018.5 |
| 20260906112036 | 13 | 0 | 0.0 | 16.1 | 0.00 | 0.46 | 0.00 | 88 | 1018.6 |
| 20260906111553 | 13 | 0 | 0.0 | 12.9 | 0.00 | 0.46 | 0.00 | 88 | 1018.5 |
| 20260906111035 | 13 | 0 | 0.0 | 11.3 | 0.00 | 0.46 | 0.00 | 88 | 1018.5 |
| 20260906110537 | 13 | 0 | 0.0 | 12.9 | 0.00 | 0.46 | 0.00 | 87 | 1018.5 |
| 20260906110057 | 13 | 76 | 0.0 | 12.9 | 0.00 | 0.46 | 0.00 | 87 | 1018.5 |
| 20260906105535 | 13 | 70 | 0.0 | 11.3 | 0.00 | 0.46 | 0.00 | 87 | 1018.5 |
| 20260906105035 | 13 | 0 | 0.0 | 9.7 | 0.00 | 0.46 | 0.00 | 87 | 1018.6 |
| 20260906104552 | 13 | 0 | 0.0 | 14.5 | 0.00 | 0.46 | 0.00 | 87 | 1018.7 |
| 20260906104036 | 13 | 0 | 0.0 | 14.5 | 0.00 | 0.46 | 0.00 | 87 | 1018.6 |
| 20260906103535 | 13 | 0 | 0.0 | 12.9 | 0.00 | 0.46 | 0.00 | 87 | 1018.7 |
| 20260906103057 | 13 | 0 | 0.0 | 14.5 | 0.00 | 0.46 | 0.00 | 87 | 1018.6 |
| 20260906102536 | 13 | 55 | 1.6 | 14.5 | 0.00 | 0.46 | 0.00 | 87 | 1018.6 |
| 20260906102035 | 13 | 71 | 0.0 | 14.5 | 0.00 | 0.46 | 0.00 | 87 | 1018.6 |
| 20260906101557 | 13 | 59 | 1.6 | 14.5 | 0.00 | 0.46 | 0.00 | 87 | 1018.6 |
| 20260906101034 | 13 | 22 | 3.2 | 14.5 | 0.00 | 0.46 | 0.00 | 87 | 1018.8 |
| 20260906100536 | 13 | 60 | 1.6 | 16.1 | 0.00 | 0.46 | 0.00 | 87 | 1018.8 |
| 20260906100057 | 13 | 79 | 1.6 | 16.1 | 0.00 | 0.46 | 0.00 | 87 | 1018.8 |
| 20260906095536 | 13 | 0 | 1.6 | 14.5 | 0.00 | 0.46 | 0.00 | 87 | 1018.8 |
| 20260906095036 | 13 | 61 | 3.2 | 19.3 | 0.00 | 0.46 | 0.00 | 86 | 1018.6 |
| 20260906094549 | 13 | 67 | 1.6 | 19.3 | 0.00 | 0.46 | 0.00 | 86 | 1018.6 |
| 20260906094035 | 13 | 0 | 1.6 | 16.1 | 0.00 | 0.46 | 0.00 | 85 | 1018.7 |
| 20260906093535 | 13 | 0 | 1.6 | 12.9 | 0.00 | 0.46 | 0.00 | 85 | 1018.6 |
| 20260906093115 | 13 | 0 | 0.0 | 11.3 | 0.00 | 0.46 | 0.00 | 85 | 1018.9 |
| 20260906092536 | 13 | 65 | 1.6 | 11.3 | 0.00 | 0.46 | 0.00 | 85 | 1019.0 |
| 20260906092037 | 14 | 0 | 0.0 | 11.3 | 0.00 | 0.46 | 0.00 | 85 | 1019.0 |
| 20260906091556 | 14 | 75 | 0.0 | 12.9 | 0.00 | 0.46 | 0.00 | 85 | 1018.9 |
| 20260906091035 | 13 | 5 | 0.0 | 12.9 | 0.00 | 0.46 | 0.00 | 85 | 1019.1 |
| 20260906090536 | 13 | 47 | 0.0 | 16.1 | 0.00 | 0.46 | 0.00 | 85 | 1019.0 |
| 20260906090104 | 13 | 74 | 0.0 | 16.1 | 0.00 | 0.46 | 0.00 | 86 | 1019.1 |
| 20260906085536 | 13 | 13 | 1.6 | 12.9 | 0.00 | 0.46 | 0.00 | 86 | 1019.3 |
| 20260906085035 | 13 | 353 | 0.0 | 12.9 | 0.00 | 0.46 | 0.00 | 86 | 1019.3 |
| 20260906084550 | 13 | 5 | 0.0 | 9.7 | 0.00 | 0.46 | 0.00 | 87 | 1019.5 |
| 20260906084034 | 13 | 0 | 0.0 | 11.3 | 0.00 | 0.46 | 0.00 | 87 | 1019.7 |
| 20260906083535 | 13 | 0 | 0.0 | 14.5 | 0.00 | 0.46 | 0.00 | 87 | 1019.6 |
| 20260906083050 | 13 | 11 | 0.0 | 14.5 | 0.00 | 0.46 | 0.00 | 87 | 1019.6 |
| 20260906082534 | 13 | 84 | 0.0 | 4.8 | 0.00 | 0.46 | 0.00 | 87 | 1019.5 |
| 20260906082036 | 13 | 0 | 0.0 | 3.2 | 0.00 | 0.46 | 0.00 | 87 | 1019.5 |
| 20260906081557 | 13 | 0 | 0.0 | 3.2 | 0.00 | 0.46 | 0.00 | 86 | 1019.4 |
| 20260906081038 | 13 | 0 | 0.0 | 3.2 | 0.00 | 0.46 | 0.00 | 86 | 1019.5 |
| 20260906080536 | 13 | 0 | 0.0 | 4.8 | 0.00 | 0.46 | 0.00 | 86 | 1019.5 |
| 20260906080100 | 13 | 0 | 0.0 | 4.8 | 0.00 | 0.46 | 0.00 | 86 | 1019.4 |
| 20260906075537 | 13 | 0 | 0.0 | 4.8 | 0.00 | 0.46 | 0.00 | 86 | 1019.3 |
| 20260906075035 | 13 | 0 | 0.0 | 4.8 | 0.00 | 0.46 | 0.00 | 86 | 1019.3 |
| 20260906074557 | 13 | 0 | 0.0 | 4.8 | 0.00 | 0.46 | 0.00 | 86 | 1019.3 |
| 20260906074036 | 13 | 0 | 0.0 | 12.9 | 0.00 | 0.46 | 0.00 | 85 | 1019.3 |
| 20260906073536 | 13 | 49 | 0.0 | 12.9 | 0.00 | 0.46 | 0.00 | 85 | 1019.2 |
| 20260906073057 | 13 | 0 | 0.0 | 14.5 | 0.00 | 0.46 | 0.00 | 85 | 1019.3 |
| 20260906072536 | 13 | 0 | 0.0 | 14.5 | 0.00 | 0.46 | 0.00 | 85 | 1019.4 |
| 20260906072034 | 14 | 74 | 0.0 | 4.8 | 0.00 | 0.46 | 0.00 | 85 | 1019.5 |
| 20260906071606 | 14 | 0 | 0.0 | 12.9 | 0.00 | 0.46 | 0.00 | 85 | 1019.4 |
| 20260906071036 | 14 | 0 | 0.0 | 12.9 | 0.00 | 0.46 | 0.00 | 85 | 1019.4 |
| 20260906070535 | 14 | 74 | 1.6 | 14.5 | 0.00 | 0.46 | 0.00 | 85 | 1019.3 |
| 20260906070059 | 14 | 0 | 1.6 | 22.5 | 0.00 | 0.46 | 0.00 | 85 | 1019.5 |
| 20260906065538 | 14 | 78 | 1.6 | 22.5 | 0.00 | 0.46 | 0.00 | 85 | 1019.7 |
| 20260906065036 | 14 | 0 | 0.0 | 1.6 | 0.00 | 0.46 | 0.00 | 86 | 1020.0 |
| 20260906064556 | 14 | 0 | 0.0 | 12.9 | 0.00 | 0.46 | 0.00 | 86 | 1020.1 |
| 20260906064037 | 14 | 0 | 0.0 | 14.5 | 0.00 | 0.46 | 0.00 | 85 | 1020.3 |
| 20260906063535 | 13 | 0 | 1.6 | 14.5 | 0.00 | 0.46 | 0.00 | 86 | 1020.3 |
| 20260906063102 | 13 | 0 | 0.0 | 11.3 | 0.00 | 0.46 | 0.00 | 86 | 1020.2 |
| 20260906062535 | 13 | 0 | 0.0 | 11.3 | 0.00 | 0.46 | 0.00 | 86 | 1020.1 |
| 20260906062035 | 13 | 63 | 0.0 | 8.0 | 0.00 | 0.46 | 0.00 | 87 | 1020.0 |
| 20260906061559 | 13 | 0 | 0.0 | 9.7 | 0.00 | 0.46 | 0.00 | 87 | 1020.0 |
| 20260906061035 | 13 | 53 | 0.0 | 12.9 | 0.00 | 0.46 | 0.00 | 87 | 1019.8 |
| 20260906060536 | 13 | 0 | 1.6 | 14.5 | 0.00 | 0.46 | 0.00 | 87 | 1020.1 |
| 20260906060059 | 13 | 0 | 1.6 | 16.1 | 0.00 | 0.46 | 0.00 | 86 | 1020.0 |
| 20260906055537 | 13 | 0 | 1.6 | 16.1 | 0.03 | 0.46 | 0.46 | 87 | 1019.9 |
| 20260906055035 | 13 | 0 | 1.6 | 16.1 | 0.05 | 0.46 | 0.46 | 87 | 1019.9 |
| 20260906054558 | 13 | 18 | 1.6 | 17.7 | 0.05 | 0.46 | 0.46 | 87 | 1020.0 |
| 20260906054035 | 13 | 78 | 1.6 | 17.7 | 0.05 | 0.46 | 0.46 | 86 | 1019.9 |
| 20260906053536 | 13 | 51 | 1.6 | 16.1 | 0.05 | 0.46 | 0.46 | 86 | 1019.7 |
| 20260906053048 | 13 | 0 | 3.2 | 16.1 | 0.05 | 0.46 | 0.46 | 86 | 1019.5 |
| 20260906052535 | 13 | 11 | 4.8 | 16.1 | 0.05 | 0.46 | 0.46 | 85 | 1019.5 |
| 20260906052036 | 13 | 0 | 1.6 | 16.1 | 0.05 | 0.46 | 0.46 | 86 | 1019.6 |
| 20260906051556 | 13 | 17 | 1.6 | 16.1 | 0.05 | 0.46 | 0.46 | 86 | 1019.6 |
| 20260906051032 | 13 | 52 | 3.2 | 16.1 | 0.05 | 0.46 | 0.46 | 85 | 1019.5 |
| 20260906050539 | 13 | 0 | 3.2 | 16.1 | 0.05 | 0.46 | 0.46 | 85 | 1019.5 |
| 20260906050114 | 13 | 0 | 3.2 | 19.3 | 0.05 | 0.46 | 0.46 | 84 | 1019.4 |
| 20260906045533 | 13 | 0 | 4.8 | 19.3 | 0.03 | 0.43 | 0.43 | 84 | 1019.5 |
| 20260906045035 | 13 | 41 | 4.8 | 19.3 | 0.00 | 0.41 | 0.41 | 82 | 1019.4 |
| 20260906044554 | 13 | 360 | 4.8 | 16.1 | 0.00 | 0.41 | 0.41 | 83 | 1019.4 |
| 20260906044037 | 13 | 17 | 0.0 | 16.1 | 0.00 | 0.41 | 0.41 | 83 | 1020.2 |
| 20260906043535 | 13 | 0 | 1.6 | 16.1 | 0.00 | 0.41 | 0.41 | 83 | 1020.2 |
| 20260906043059 | 13 | 0 | 1.6 | 16.1 | 0.00 | 0.41 | 0.41 | 84 | 1019.5 |
| 20260906042534 | 13 | 63 | 1.6 | 19.3 | 0.00 | 0.41 | 0.41 | 84 | 1019.3 |
| 20260906042033 | 13 | 74 | 3.2 | 19.3 | 0.05 | 0.41 | 0.41 | 84 | 1019.1 |
| 20260906041556 | 13 | 88 | 8.0 | 20.9 | 0.28 | 0.41 | 0.41 | 85 | 1019.0 |
| 20260906041032 | 13 | 76 | 4.8 | 20.9 | 0.28 | 0.41 | 0.41 | 85 | 1018.9 |
| 20260906040532 | 13 | 45 | 1.6 | 12.9 | 0.28 | 0.41 | 0.41 | 85 | 1018.9 |
| 20260906040100 | 13 | 72 | 1.6 | 19.3 | 0.28 | 0.41 | 0.41 | 85 | 1019.1 |
| 20260906035536 | 13 | 0 | 3.2 | 19.3 | 0.28 | 0.41 | 0.41 | 85 | 1019.2 |
| 20260906035032 | 13 | 14 | 4.8 | 19.3 | 0.28 | 0.41 | 0.41 | 85 | 1019.1 |
| 20260906034551 | 13 | 0 | 4.8 | 19.3 | 0.28 | 0.41 | 0.41 | 84 | 1019.3 |
| 20260906034039 | 14 | 25 | 3.2 | 17.7 | 0.28 | 0.41 | 0.41 | 83 | 1019.4 |
| 20260906033535 | 14 | 0 | 1.6 | 19.3 | 0.28 | 0.41 | 0.41 | 81 | 1019.5 |
| 20260906033058 | 15 | 0 | 0.0 | 19.3 | 0.28 | 0.41 | 0.41 | 80 | 1019.7 |
| 20260906032532 | 15 | 0 | 1.6 | 14.5 | 0.28 | 0.41 | 0.41 | 77 | 1019.6 |
| 20260906032033 | 16 | 64 | 0.0 | 14.5 | 0.18 | 0.30 | 0.30 | 75 | 1019.9 |
| 20260906031557 | 16 | 6 | 0.0 | 9.7 | 0.00 | 0.13 | 0.13 | 68 | 1020.1 |
| 20260906031035 | 16 | 5 | 0.0 | 16.1 | 0.00 | 0.13 | 0.13 | 68 | 1020.3 |
| 20260906030533 | 16 | 81 | 1.6 | 20.9 | 0.00 | 0.13 | 0.13 | 69 | 1019.3 |
| 20260906030114 | 16 | 17 | 3.2 | 22.5 | 0.00 | 0.13 | 0.13 | 68 | 1018.9 |
| 20260906025532 | 16 | 58 | 4.8 | 22.5 | 0.00 | 0.13 | 0.13 | 68 | 1018.6 |
| 20260906025035 | 16 | 18 | 1.6 | 17.7 | 0.00 | 0.13 | 0.13 | 68 | 1018.4 |
| 20260906024602 | 16 | 76 | 3.2 | 17.7 | 0.00 | 0.13 | 0.13 | 67 | 1018.3 |
| 20260906024035 | 16 | 81 | 3.2 | 19.3 | 0.00 | 0.13 | 0.13 | 67 | 1018.2 |
| 20260906023538 | 16 | 0 | 3.2 | 19.3 | 0.00 | 0.13 | 0.13 | 67 | 1018.1 |
| 20260906023107 | 16 | 0 | 3.2 | 17.7 | 0.00 | 0.13 | 0.13 | 67 | 1018.0 |
| 20260906022532 | 16 | 41 | 1.6 | 16.1 | 0.00 | 0.13 | 0.13 | 66 | 1017.9 |
| 20260906022033 | 16 | 67 | 3.2 | 19.3 | 0.00 | 0.13 | 0.13 | 65 | 1018.0 |
| 20260906021609 | 16 | 73 | 3.2 | 24.1 | 0.00 | 0.13 | 0.13 | 65 | 1018.0 |
| 20260906021034 | 16 | 53 | 4.8 | 24.1 | 0.00 | 0.13 | 0.13 | 65 | 1018.0 |
| 20260906020532 | 17 | 45 | 4.8 | 17.7 | 0.00 | 0.13 | 0.13 | 64 | 1018.0 |
| 20260906020059 | 17 | 0 | 3.2 | 14.5 | 0.00 | 0.13 | 0.13 | 63 | 1018.0 |
| 20260906015533 | 17 | 38 | 1.6 | 17.7 | 0.00 | 0.13 | 0.13 | 62 | 1017.9 |
| 20260906015032 | 17 | 75 | 3.2 | 17.7 | 0.00 | 0.13 | 0.13 | 62 | 1017.9 |
| 20260906014548 | 17 | 6 | 1.6 | 14.5 | 0.00 | 0.13 | 0.13 | 61 | 1017.9 |
| 20260906014032 | 18 | 0 | 1.6 | 12.9 | 0.00 | 0.13 | 0.13 | 60 | 1017.9 |
| 20260906013533 | 18 | 0 | 1.6 | 11.3 | 0.00 | 0.13 | 0.13 | 60 | 1017.9 |
| 20260906013057 | 18 | 0 | 0.0 | 9.7 | 0.00 | 0.13 | 0.13 | 59 | 1017.9 |
| 20260906012536 | 18 | 18 | 0.0 | 9.7 | 0.00 | 0.13 | 0.13 | 58 | 1017.8 |
| 20260906012032 | 18 | 0 | 0.0 | 4.8 | 0.00 | 0.13 | 0.13 | 58 | 1017.9 |
| 20260906011604 | 18 | 0 | 1.6 | 14.5 | 0.00 | 0.13 | 0.13 | 57 | 1017.8 |
| 20260906011033 | 18 | 20 | 1.6 | 14.5 | 0.00 | 0.13 | 0.13 | 58 | 1017.9 |
| 20260906010532 | 19 | 0 | 0.0 | 9.7 | 0.00 | 0.13 | 0.13 | 57 | 1017.8 |
| 20260906010054 | 19 | 47 | 0.0 | 12.9 | 0.00 | 0.13 | 0.13 | 56 | 1017.9 |
| 20260906005533 | 19 | 52 | 0.0 | 12.9 | 0.00 | 0.13 | 0.13 | 57 | 1017.9 |
| 20260906005035 | 19 | 18 | 0.0 | 14.5 | 0.00 | 0.13 | 0.13 | 55 | 1017.9 |
| 20260906004557 | 20 | 47 | 1.6 | 17.7 | 0.00 | 0.13 | 0.13 | 55 | 1017.9 |
| 20260906004034 | 20 | 43 | 1.6 | 19.3 | 0.00 | 0.13 | 0.13 | 54 | 1018.0 |
| 20260906003532 | 20 | 79 | 1.6 | 19.3 | 0.00 | 0.13 | 0.13 | 54 | 1018.0 |
| 20260906003105 | 21 | 59 | 1.6 | 12.9 | 0.00 | 0.13 | 0.13 | 53 | 1017.9 |
| 20260906002532 | 21 | 0 | 1.6 | 16.1 | 0.00 | 0.13 | 0.13 | 53 | 1017.9 |
| 20260906002032 | 21 | 26 | 1.6 | 16.1 | 0.00 | 0.13 | 0.13 | 52 | 1018.0 |
| 20260906001555 | 21 | 0 | 0.0 | 17.7 | 0.00 | 0.13 | 0.13 | 52 | 1017.9 |
| 20260906001032 | 21 | 0 | 3.2 | 17.7 | 0.00 | 0.13 | 0.13 | 52 | 1017.9 |
| 20260906000535 | 21 | 0 | 0.0 | 11.3 | 0.00 | 0.13 | 0.13 | 51 | 1017.9 |
| 20260906000050 | 21 | 0 | 1.6 | 12.9 | 0.00 | 0.13 | 0.13 | 51 | 1017.9 |
| 20260905235536 | 21 | 0 | 0.0 | 12.9 | 0.00 | 0.13 | 0.13 | 50 | 1017.9 |
| 20260905235033 | 21 | 0 | 0.0 | 12.9 | 0.00 | 0.13 | 0.13 | 49 | 1018.0 |
| 20260905234555 | 22 | 44 | 0.0 | 12.9 | 0.00 | 0.13 | 0.13 | 48 | 1018.3 |
| 20260905234038 | 22 | 0 | 0.0 | 14.5 | 0.00 | 0.13 | 0.13 | 48 | 1018.2 |
| 20260905233533 | 22 | 0 | 1.6 | 14.5 | 0.00 | 0.13 | 0.13 | 48 | 1018.2 |
| 20260905233058 | 22 | 0 | 0.0 | 4.8 | 0.00 | 0.13 | 0.13 | 47 | 1018.2 |